ORBCOMM FM104 [-] (40090 NORAD) Tracking and Keplerian Element Data

This shows tracking and keplerian element data for the satellite.

Feedback or suggestion? Click here.




ElementValue
Catalog40090
NameORBCOMM FM104 [-]
Epoch Orbit23485
Epoch Day348.63679051
Epoch Year2018
RAAN41.6908
Inclination47.0075
Eccentricity0.0018271
Argument of Perigee188.6622
Mean Anonmoly171.3948
Mean Motion14.53321758
Decay Rate-5.6E-07
L11 40090U 14040E 18348.63679051 -.00000056 00000-0 26286-4 0 9993
L22 40090 47.0075 41.6908 0018271 188.6622 171.3948 14.53321758234852

Live tracking and technical data element details for ORBCOMM FM104 [-] (NORAD 40090). ORBCOMM FM104 [-] can be tracked NOW for your location showing map with azimuth and elevation plus other details from your city location.

Track the satellite on the map from your city or location and see movement details for azimuth, elevation, latitude, longitude, range, height, and movement on the map or in text.







IsCatalogInMostPopularTable: catalog: 40090, numindb: 120
Update: records affected: 1



GetName: 40090 ORBCOMM FM104 [-]

Hit Count: updated at: Sat, 15 Dec 2018 14:29:12 GMT